Location: Mountain Grove
(34.0887°N, 86.6172°W)
Time: 23:51:18
(UTC+00:00)

COSMOS 2441 - Pass Details

Date: 14 July 2020
Orbit: 707 x 732 km, 98.0° (Epoch: 12 August)

Event Time Altitude Azimuth Distance (km) Brightness Sun altitude
Rises 09:29:33 0° 9° (N) 3,115 8.4 -14.1°
Reaches altitude 10° 09:31:49 10° 8° (N) 2,189 7.5 -13.7°
Maximum altitude 09:36:35 72° 285° (WNW) 745 4.3 -13.0°
Enters shadow 09:40:56 12° 201° (SSW) 2,014 6.2 -12.2°
